Regional Weather Roundup
Issued by NWS Cleveland, OH

Home | Current Version | Previous Version | Text Only | Print | Product List | Glossary Off
Versions: 1 2 3 4 5 6 7 8 9 10 11 12 13 14 15 16 17 18 19 20 21 22 23 24 25 26 27 28 29 30 31 32 33 34 35 36 37 38 39 40 41 42 43 44 45 46 47 48 49 50

919
ASUS41 KCLE 230612
RWRCLE
OHIO REGIONAL WEATHER ROUNDUP
NATIONAL WEATHER SERVICE WILMINGTON, OH
100 AM EST MON JAN 23 2017

NOTE: "FAIR" INDICATES FEW OR NO CLOUDS BELOW 12,000 FEET WITH NO
SIGNIFICANT WEATHER AND/OR OBSTRUCTIONS TO VISIBILITY.

OHZ001>008-015>018-024>027-034-035-043-044-230700-
   NORTHWEST OHIO

CITY           SKY/WX    TMP DP  RH WIND       PRES   REMARKS
DEFIANCE       CLOUDY    44  43  96 NE10G21   29.58S FOG
FINDLAY        CLOUDY    40  37  89 N13       29.53F FOG
TOLEDO EXPRESS CLOUDY    41  41 100 NE16      29.60F FOG
TOLEDO EXEC    CLOUDY    40  40 100 NE13G25   29.61S FOG
LIMA           FOG       42  42 100 N14       29.51F VSB 1/4
$$

OHZ009>014-019>023-028>033-038-089-230700-
   NORTHEAST OHIO

CITY           SKY/WX    TMP DP  RH WIND       PRES   REMARKS
CLE-HOPKINS    CLOUDY    41  37  86 N8        29.57F
CLE-LAKEFRONT  CLOUDY    38  37  97 NE12      29.55F FOG
CUY CO. ARPT   NOT AVBL
LORAIN-ELYRIA  CLOUDY    38  36  92 NE10      29.55F FOG
ASHTABULA      CLOUDY    39  39 100 NE6       29.61R FOG
AKRON-CANTON   MOCLDY    52  46  80 E9        29.52F
WOOSTER        MOCLDY    51  47  86 NE10      29.52S
MANSFIELD      FAIR      50  48  93 N9        29.50F
YOUNGSTOWN     CLOUDY    51  45  79 E13       29.57S
$$

OHZ042-051>053-060>062-070>072-077>081-230700-
  SOUTHWEST OHIO

CITY           SKY/WX    TMP DP  RH WIND       PRES   REMARKS
CINC-COVINGTON CLOUDY    55  48  77 N17       29.40F
CINC-LUNKEN    FAIR      56  49  77 NE10      29.41F
HAMILTON       CLOUDY    55  49  80 N12       29.43F
DAYTON         MOCLDY    49  46  90 N18       29.46F
WRIGHT-PAT AFB CLOUDY    52  50  92 N13       29.44F
DAYTON GENERAL FAIR      53  48  83 N13G22    29.42F
WILMINGTON     CLOUDY    51  48  89 NE14      29.40F
$$

OHZ036-037-039>041-045>050-054>059-063>069-073>076-082>088-230700-
  CENTRAL AND SOUTHEAST OHIO

CITY           SKY/WX    TMP DP  RH WIND       PRES   REMARKS
COLUMBUS       MOCLDY    56  48  74 NE14      29.43F
OSU AIRPORT    LGT RAIN  55  49  80 NE10      29.44F
BOLTON FIELD   MOCLDY    55  49  80 NE12G20   29.44S
RICKENBACK AFB   N/A     54  48  80 NE12      29.43S
NEWARK         CLOUDY    56  48  74 NE8       29.44F
MARION         FAIR      45  43  93 N14       29.49F FOG
LANCASTER      CLOUDY    56  48  74 NE10      29.43F
ZANESVILLE     CLOUDY    56  47  71 E12       29.44F
NEW PHILLY     CLOUDY    55  47  74 E9G20     29.50F
$$




USA.gov is the U.S. government's official web portal to all federal, state and local government web resources and services.